AFR7799 LFPO-LFLL

Flight info

Callsign AFR7799
Flight time 0h 42m
Altitude 27000
Route OKASI DCT OKEKO DCT OKEPI DCT MOU/N0375F190 A3 FEDZI
Aircraft B733/M-SDE2E3FHIRW/S

Departure

Time 2026-05-07 15:55
Airport Paris-Orly Airport (LFPO)

Arrival

Time 2026-05-07 16:38
Airport Lyon Saint-Exupéry Airport (LFLL)
Time Latitude Longitude Altitude Speed Heading
2026-05-07 15:35 48.72425 2.36636 283 ft 0 kts 143°
2026-05-07 15:48 48.72426 2.36635 283 ft 1 kts 143°
2026-05-07 15:48 48.72438 2.36622 283 ft 2 kts 143°
2026-05-07 15:48 48.72449 2.36609 283 ft 2 kts 143°
2026-05-07 15:48 48.72462 2.36595 283 ft 2 kts 143°
2026-05-07 15:49 48.72474 2.36583 283 ft 2 kts 169°
2026-05-07 15:49 48.72488 2.36589 283 ft 2 kts 226°
2026-05-07 15:49 48.72492 2.36599 283 ft 1 kts 255°
2026-05-07 15:49 48.72493 2.36609 283 ft 0 kts 255°
2026-05-07 15:51 48.72493 2.36608 283 ft 0 kts 255°
2026-05-07 15:51 48.72489 2.36585 283 ft 4 kts 255°
2026-05-07 15:51 48.72479 2.36524 283 ft 7 kts 255°
2026-05-07 15:52 48.72459 2.36413 280 ft 13 kts 255°
2026-05-07 15:52 48.72431 2.36252 279 ft 17 kts 251°
2026-05-07 15:52 48.72393 2.36067 279 ft 19 kts 255°
2026-05-07 15:52 48.72349 2.35867 277 ft 19 kts 254°
2026-05-07 15:53 48.72311 2.35655 276 ft 21 kts 234°
2026-05-07 15:53 48.72182 2.35616 277 ft 19 kts 166°
2026-05-07 15:53 48.72060 2.35695 277 ft 15 kts 139°
2026-05-07 15:53 48.72027 2.35759 278 ft 2 kts 123°
2026-05-07 15:54 48.72024 2.35766 278 ft 2 kts 123°
2026-05-07 15:54 48.72001 2.35822 279 ft 10 kts 119°
2026-05-07 15:54 48.71966 2.35981 279 ft 20 kts 85°
2026-05-07 15:54 48.72024 2.36312 279 ft 60 kts 74°
2026-05-07 15:55 48.72222 2.37375 286 ft 144 kts 74°
2026-05-07 15:55 48.72504 2.39015 827 ft 172 kts 76°
2026-05-07 15:55 48.72827 2.40888 1313 ft 202 kts 75°
2026-05-07 15:55 48.73244 2.43132 1652 ft 230 kts 74°
2026-05-07 15:56 48.73674 2.45448 1719 ft 226 kts 73°
2026-05-07 15:56 48.74021 2.47851 1806 ft 247 kts 86°
2026-05-07 15:56 48.74117 2.50525 2439 ft 263 kts 86°
2026-05-07 15:56 48.74213 2.53253 3589 ft 265 kts 86°
2026-05-07 15:57 48.74220 2.56006 4721 ft 267 kts 100°
2026-05-07 15:57 48.73390 2.58452 5766 ft 270 kts 135°
2026-05-07 15:57 48.71766 2.59775 6753 ft 275 kts 167°
2026-05-07 15:57 48.69913 2.60361 7739 ft 279 kts 166°
2026-05-07 15:58 48.68042 2.61077 8756 ft 281 kts 164°
2026-05-07 15:58 48.66177 2.61892 9745 ft 283 kts 163°
2026-05-07 15:58 48.64225 2.62349 10484 ft 294 kts 184°
2026-05-07 15:58 48.62217 2.61379 10727 ft 320 kts 208°
2026-05-07 15:59 48.60225 2.59780 11397 ft 332 kts 208°
2026-05-07 15:59 48.58191 2.58173 12315 ft 335 kts 208°
2026-05-07 15:59 48.56103 2.56539 13225 ft 339 kts 208°
2026-05-07 15:59 48.54036 2.54930 14064 ft 343 kts 208°
2026-05-07 16:00 48.51899 2.53273 14889 ft 347 kts 208°
2026-05-07 16:00 48.49773 2.51628 15700 ft 350 kts 208°
2026-05-07 16:00 48.47520 2.50250 16440 ft 357 kts 193°
2026-05-07 16:00 48.45041 2.50109 17182 ft 364 kts 173°
2026-05-07 16:01 48.42625 2.51322 17897 ft 372 kts 155°
2026-05-07 16:01 48.40319 2.53117 18592 ft 377 kts 154°
2026-05-07 16:01 48.37980 2.54956 19279 ft 382 kts 154°
2026-05-07 16:01 48.35628 2.56785 19951 ft 386 kts 154°
2026-05-07 16:02 48.33266 2.58611 20616 ft 389 kts 155°
2026-05-07 16:02 48.30829 2.60489 21262 ft 393 kts 155°
2026-05-07 16:02 48.28405 2.62353 21883 ft 397 kts 155°
2026-05-07 16:02 48.25935 2.64252 22496 ft 401 kts 155°
2026-05-07 16:03 48.23474 2.66147 23071 ft 405 kts 155°
2026-05-07 16:03 48.20961 2.68090 23652 ft 408 kts 155°
2026-05-07 16:03 48.18430 2.70039 24231 ft 412 kts 155°
2026-05-07 16:03 48.15901 2.71981 24787 ft 415 kts 155°
2026-05-07 16:04 48.13306 2.73969 25337 ft 418 kts 155°
2026-05-07 16:04 48.10733 2.75938 25870 ft 422 kts 155°
2026-05-07 16:04 48.08111 2.77914 26395 ft 424 kts 158°
2026-05-07 16:04 48.05402 2.79685 26852 ft 428 kts 160°
2026-05-07 16:05 48.02663 2.81407 26995 ft 429 kts 160°
2026-05-07 16:05 47.99950 2.83121 27083 ft 423 kts 159°
2026-05-07 16:05 47.97253 2.84831 27074 ft 419 kts 160°
2026-05-07 16:05 47.94616 2.86505 27045 ft 417 kts 160°
2026-05-07 16:06 47.91926 2.88211 27029 ft 417 kts 160°
2026-05-07 16:06 47.89258 2.89901 27011 ft 418 kts 160°
2026-05-07 16:06 47.86602 2.91577 27014 ft 417 kts 160°
2026-05-07 16:06 47.83944 2.93254 27028 ft 418 kts 160°
2026-05-07 16:07 47.81262 2.94946 27030 ft 418 kts 160°
2026-05-07 16:07 47.78603 2.96624 27031 ft 418 kts 160°
2026-05-07 16:07 47.75948 2.98297 27031 ft 417 kts 160°
2026-05-07 16:07 47.73272 2.99982 27033 ft 417 kts 160°
2026-05-07 16:08 47.70611 3.01656 27035 ft 417 kts 160°
2026-05-07 16:08 47.67901 3.03359 27037 ft 417 kts 160°
2026-05-07 16:08 47.65222 3.05040 27039 ft 417 kts 160°
2026-05-07 16:08 47.62550 3.06715 27041 ft 417 kts 160°
2026-05-07 16:09 47.59895 3.08379 27043 ft 417 kts 160°
2026-05-07 16:09 47.57208 3.10059 27044 ft 417 kts 160°
2026-05-07 16:09 47.54537 3.11728 27046 ft 417 kts 160°
2026-05-07 16:09 47.51837 3.13406 27048 ft 417 kts 160°
2026-05-07 16:10 47.49138 3.15082 27035 ft 418 kts 160°
2026-05-07 16:10 47.46421 3.16769 26992 ft 430 kts 159°
2026-05-07 16:10 47.43619 3.18508 26972 ft 444 kts 159°
2026-05-07 16:10 47.40750 3.20290 26968 ft 457 kts 159°
2026-05-07 16:11 47.37751 3.22152 26967 ft 464 kts 159°
2026-05-07 16:11 47.34784 3.23992 26986 ft 465 kts 159°
2026-05-07 16:11 47.31813 3.25832 26995 ft 466 kts 159°
2026-05-07 16:11 47.28807 3.27690 26997 ft 466 kts 159°
2026-05-07 16:12 47.25828 3.29530 26996 ft 466 kts 159°
2026-05-07 16:12 47.22816 3.31387 26994 ft 466 kts 159°
2026-05-07 16:12 47.19830 3.33226 26994 ft 466 kts 159°
2026-05-07 16:12 47.16840 3.35065 26994 ft 466 kts 159°
2026-05-07 16:13 47.13858 3.36895 26994 ft 466 kts 159°
2026-05-07 16:13 47.10849 3.38735 26994 ft 466 kts 159°
2026-05-07 16:13 47.07850 3.40569 26994 ft 466 kts 159°
2026-05-07 16:13 47.04865 3.42394 26995 ft 466 kts 160°
2026-05-07 16:14 47.01870 3.44224 26994 ft 466 kts 159°
2026-05-07 16:14 46.98882 3.46047 26994 ft 466 kts 159°
2026-05-07 16:14 46.95922 3.47852 26994 ft 466 kts 159°
2026-05-07 16:14 46.92909 3.49686 26994 ft 466 kts 159°
2026-05-07 16:15 46.89920 3.51504 26994 ft 466 kts 159°
2026-05-07 16:15 46.86917 3.53323 26972 ft 465 kts 160°
2026-05-07 16:15 46.83944 3.55121 26992 ft 465 kts 160°
2026-05-07 16:15 46.80974 3.56918 26994 ft 466 kts 160°
2026-05-07 16:16 46.77979 3.58731 26995 ft 466 kts 160°
2026-05-07 16:16 46.74966 3.60552 26995 ft 466 kts 160°
2026-05-07 16:16 46.71981 3.62354 26994 ft 465 kts 160°
2026-05-07 16:16 46.68961 3.64096 26993 ft 465 kts 161°
2026-05-07 16:17 46.65940 3.65745 26985 ft 465 kts 162°
2026-05-07 16:17 46.62929 3.67395 26992 ft 464 kts 162°
2026-05-07 16:17 46.59893 3.69061 27005 ft 456 kts 162°
2026-05-07 16:17 46.56998 3.70649 27028 ft 435 kts 162°
2026-05-07 16:18 46.54221 3.72168 27029 ft 418 kts 163°
2026-05-07 16:18 46.51524 3.73639 26991 ft 413 kts 163°
2026-05-07 16:18 46.48808 3.75117 26972 ft 414 kts 163°
2026-05-07 16:18 46.46104 3.76588 26981 ft 416 kts 162°
2026-05-07 16:19 46.43388 3.78137 26993 ft 417 kts 161°
2026-05-07 16:19 46.40690 3.79707 26996 ft 417 kts 161°
2026-05-07 16:19 46.38047 3.81284 26682 ft 412 kts 158°
2026-05-07 16:19 46.35644 3.83614 25987 ft 417 kts 139°
2026-05-07 16:20 46.33799 3.86824 25302 ft 419 kts 129°
2026-05-07 16:20 46.32090 3.90184 24686 ft 415 kts 129°
2026-05-07 16:20 46.30355 3.93548 24104 ft 411 kts 129°
2026-05-07 16:20 46.28634 3.96829 23541 ft 406 kts 130°
2026-05-07 16:21 46.26952 4.00010 22990 ft 402 kts 130°
2026-05-07 16:21 46.25253 4.03212 22430 ft 398 kts 130°
2026-05-07 16:21 46.23580 4.06360 21879 ft 394 kts 130°
2026-05-07 16:21 46.21924 4.09468 21332 ft 390 kts 130°
2026-05-07 16:22 46.20283 4.12546 20793 ft 387 kts 130°
2026-05-07 16:22 46.18645 4.15614 20257 ft 383 kts 129°
2026-05-07 16:22 46.17040 4.18617 19731 ft 379 kts 129°
2026-05-07 16:22 46.15416 4.21653 19200 ft 382 kts 129°
2026-05-07 16:23 46.13802 4.24665 18674 ft 384 kts 129°
2026-05-07 16:23 46.12172 4.27706 18134 ft 379 kts 129°
2026-05-07 16:23 46.10558 4.30714 17599 ft 375 kts 129°
2026-05-07 16:23 46.08964 4.33682 17081 ft 371 kts 129°
2026-05-07 16:24 46.07400 4.36588 16569 ft 367 kts 129°
2026-05-07 16:24 46.05832 4.39500 16058 ft 363 kts 129°
2026-05-07 16:24 46.04293 4.42356 15555 ft 360 kts 129°
2026-05-07 16:24 46.02779 4.45163 15058 ft 356 kts 129°
2026-05-07 16:25 46.01252 4.47990 14559 ft 352 kts 129°
2026-05-07 16:25 45.99784 4.50794 14067 ft 349 kts 125°
2026-05-07 16:25 45.98496 4.53739 13587 ft 346 kts 123°
2026-05-07 16:25 45.97257 4.56639 13101 ft 342 kts 123°
2026-05-07 16:26 45.96006 4.59530 12624 ft 338 kts 125°
2026-05-07 16:26 45.94402 4.61956 12149 ft 332 kts 141°
2026-05-07 16:26 45.92648 4.64043 11691 ft 329 kts 141°
2026-05-07 16:26 45.90896 4.66132 11242 ft 325 kts 141°
2026-05-07 16:27 45.89175 4.68195 10800 ft 321 kts 141°
2026-05-07 16:27 45.87469 4.70229 10342 ft 319 kts 141°
2026-05-07 16:27 45.85770 4.72256 9902 ft 315 kts 141°
2026-05-07 16:27 45.84132 4.74214 9786 ft 301 kts 141°
2026-05-07 16:28 45.82577 4.76072 9810 ft 283 kts 141°
2026-05-07 16:28 45.81103 4.77832 9773 ft 269 kts 141°
2026-05-07 16:28 45.79665 4.79548 9469 ft 267 kts 141°
2026-05-07 16:28 45.78254 4.81231 9060 ft 268 kts 140°
2026-05-07 16:29 45.76819 4.82941 8649 ft 270 kts 140°
2026-05-07 16:29 45.75376 4.84660 8276 ft 269 kts 140°
2026-05-07 16:29 45.73926 4.86387 7916 ft 268 kts 140°
2026-05-07 16:29 45.72499 4.88085 7561 ft 268 kts 140°
2026-05-07 16:30 45.71075 4.89778 7200 ft 267 kts 140°
2026-05-07 16:30 45.69645 4.91477 6847 ft 266 kts 140°
2026-05-07 16:30 45.68218 4.93171 6490 ft 265 kts 140°
2026-05-07 16:30 45.66816 4.94835 6131 ft 265 kts 140°
2026-05-07 16:31 45.65387 4.96530 5764 ft 264 kts 140°
2026-05-07 16:31 45.63987 4.98189 5410 ft 264 kts 140°
2026-05-07 16:31 45.62582 4.99853 5059 ft 263 kts 140°
2026-05-07 16:31 45.61167 5.01528 4708 ft 262 kts 140°
2026-05-07 16:32 45.59762 5.03190 4351 ft 261 kts 140°
2026-05-07 16:32 45.58368 5.04837 4001 ft 261 kts 140°
2026-05-07 16:32 45.56983 5.06474 3654 ft 260 kts 140°
2026-05-07 16:32 45.55587 5.08122 3304 ft 259 kts 140°
2026-05-07 16:33 45.54412 5.09990 3030 ft 254 kts 114°
2026-05-07 16:33 45.54167 5.12392 2947 ft 240 kts 77°
2026-05-07 16:33 45.54946 5.14374 2872 ft 225 kts 37°
2026-05-07 16:33 45.56331 5.15335 2832 ft 222 kts 19°
2026-05-07 16:34 45.57803 5.16046 2780 ft 222 kts 12°
2026-05-07 16:34 45.59311 5.16102 2711 ft 223 kts 353°
2026-05-07 16:34 45.60807 5.15554 2630 ft 216 kts 337°
2026-05-07 16:34 45.62073 5.14549 2591 ft 201 kts 328°
2026-05-07 16:35 45.63226 5.13559 2509 ft 187 kts 329°
2026-05-07 16:35 45.64059 5.12226 2274 ft 181 kts 286°
2026-05-07 16:35 45.64402 5.10555 2149 ft 163 kts 309°
2026-05-07 16:35 45.65284 5.09856 2034 ft 143 kts 356°
2026-05-07 16:36 45.66253 5.09729 1829 ft 132 kts 354°
2026-05-07 16:36 45.67177 5.09599 1633 ft 136 kts 354°
2026-05-07 16:36 45.68105 5.09462 1437 ft 133 kts 355°
2026-05-07 16:36 45.69024 5.09306 1260 ft 131 kts 353°
2026-05-07 16:37 45.69932 5.09173 1111 ft 132 kts 357°
2026-05-07 16:37 45.70862 5.09068 927 ft 136 kts 355°
2026-05-07 16:37 45.71805 5.08944 810 ft 131 kts 355°
2026-05-07 16:37 45.72638 5.08843 792 ft 99 kts 355°
2026-05-07 16:38 45.73148 5.08775 782 ft 49 kts 351°
2026-05-07 16:38 45.73397 5.08749 777 ft 32 kts 356°
2026-05-07 16:38 45.73609 5.08723 773 ft 29 kts 354°
2026-05-07 16:38 45.73682 5.08622 771 ft 15 kts 286°
2026-05-07 16:39 45.73714 5.08455 767 ft 13 kts 285°
2026-05-07 16:39 45.73724 5.08340 767 ft 12 kts 254°
2026-05-07 16:39 45.73653 5.08257 767 ft 15 kts 185°
2026-05-07 16:39 45.73537 5.08265 768 ft 17 kts 174°
2026-05-07 16:40 45.73407 5.08283 770 ft 19 kts 174°
2026-05-07 16:40 45.73269 5.08299 772 ft 15 kts 175°
2026-05-07 16:40 45.73155 5.08314 775 ft 17 kts 175°
2026-05-07 16:40 45.73029 5.08327 777 ft 20 kts 176°
2026-05-07 16:41 45.72854 5.08346 781 ft 30 kts 176°
2026-05-07 16:41 45.72619 5.08371 786 ft 35 kts 173°
2026-05-07 16:41 45.72378 5.08404 792 ft 27 kts 174°
2026-05-07 16:41 45.72271 5.08392 794 ft 10 kts 232°
2026-05-07 16:42 45.72246 5.08331 793 ft 4 kts 212°
2026-05-07 16:42 45.72186 5.08316 794 ft 13 kts 189°
2026-05-07 16:42 45.72059 5.08263 796 ft 24 kts 197°
2026-05-07 16:42 45.71923 5.08212 796 ft 3 kts 194°
2026-05-07 16:43 45.71894 5.08201 797 ft 5 kts 195°
2026-05-07 16:43 45.71845 5.08181 798 ft 6 kts 196°
2026-05-07 16:43 45.71835 5.08173 798 ft 0 kts 227°
2026-05-07 16:43 45.71835 5.08148 797 ft 6 kts 286°
2026-05-07 16:44 45.71856 5.08101 796 ft 5 kts 308°
2026-05-07 16:44 45.71865 5.08084 796 ft 0 kts 309°